User: anonymous   Login
Location: Frankfurt am Main
(50.1109°N, 8.6821°E)
Time: 04:28:41
(UTC+02:00)
Language:

NOAA 18 - Orbit

View from above orbital plane
View from above orbital plane
View from above satellite
View from above satellite

Ground track
Ground track

The orbit data is extracted from the following two-line orbital elements,

1 28654U 05018A   22229.32655271  .00000149  00000-0  10435-3 0  9997
2 28654  98.9457 299.7054 0014834 156.0117 204.1749 14.12765125888663
Epoch (UTC): 17 August 2022 07:50:14
Eccentricity: 0.0014834
inclination: 98.9457°
perigee height: 839 km
apogee height: 860 km
right ascension of ascending node: 299.7054°
argument of perigee: 156.0117°
revolutions per day: 14.12765125
mean anomaly at epoch: 204.1749°
orbit number at epoch: 88866

The dashed part of the orbit path shows where the satellite is in the earth's shadow,  

DLR